Temp
-4 -3 -3 -3 -3 -3 -3 -3 -4 -5 -5 -5 -5 -4 -4 -4 -2 -1 -0 0 1 1 1 1 2 1 2 3 1 2 2 1 1 1 1 1 1 1 1 1 1 1 1 1
-4 -3 -3 -3 -3 -3 -3 -4 -4 -4 -4 -5 -4 -3 -3 -3 -4 -2 -1 -1 1 1 1 1 1 1 1 1 1 1 1 1 1 1 1 1 1 1 1 1 1 1 1 1
-2 -2 -2 -3 -4 -4 -4 -4 -4 -4 -4 -4 -3 -2 -3 -3 -2 -3 -3 -1 -1 -0 0 1 0 1 -0 0 0 0 0 1 -0 -0 -0 -0 0 0 1 1 1 0 1 1
-2 -2 -5 -4 -4 -4 -4 -4 -4 -4 -3 -3 -3 -3 -2 -3 -2 -2 -1 0 0 -0 0 1 -0 -0 0 -0 -0 -0 -0 0 0 0 1 1 0 0 0 0 -0 0 -0 0
-2 -4 -4 -4 -4 -4 -4 -4 -4 -4 -3 -3 -3 -3 -2 -2 -1 -1 -1 -1 -1 -1 -0 -0 0 0 0 0 0 0 -0 -1 -1 -0 0 0 1 0 0 0 -0 -0 -0 -0
-2 -2 -3 -3 -3 -4 -4 -4 -4 -4 -3 -3 -3 -2 -2 -2 -2 -2 -1 -1 -1 -1 -0 -0 0 0 -0 -0 -0 0 -0 -0 -1 -1 -1 -1 -0 -0 0 -0 -1 -0 -1 -1
-2 -2 -3 -3 -3 -3 -4 -4 -4 -3 -2 -3 -3 -2 -2 -2 -2 -2 -1 -1 -1 -1 -1 -0 -0 -0 -0 -0 -0 0 -0 -0 -0 -1 -1 -1 -1 -1 -1 -1 -1 -1 -1 -1
-3 -3 -4 -3 -3 -3 -2 -3 -3 -3 -2 -2 -2 -2 -3 -3 -3 -2 -2 -2 -2 -1 -1 -1 -1 -1 -1 -1 -0 -0 -0 -0 -0 -0 -0 -1 -2 -2 -2 -2 -2 -2 -2 -2
-2 -2 -2 -2 -3 -2 -3 -3 -3 -4 -3 -3 -3 -2 -2 -2 -2 -2 -2 -2 -2 -1 -2 -2 -2 -2 -2 -1 -1 -1 -1 -1 -1 -1 -1 -1 -1 -1 -2 -2 -3 -3 -2 -2
-2 -1 -1 -2 -2 -2 -3 -3 -3 -3 -4 -4 -4 -3 -3 -3 -3 -3 -3 -2 -2 -2 -2 -2 -2 -2 -2 -2 -2 -2 -3 -2 -2 -2 -2 -3 -2 -3 -3 -3 -3 -3 -3 -3
-1 -1 -1 -1 -2 -2 -2 -3 -3 -4 -4 -4 -4 -4 -4 -4 -4 -3 -3 -3 -3 -3 -3 -3 -3 -2 -2 -3 -3 -3 -3 -3 -3 -3 -3 -3 -3 -4 -4 -5 -5 -4 -4 -4
1 -0 -0 -1 -2 -2 -3 -3 -3 -3 -4 -4 -4 -4 -4 -4 -4 -4 -4 -3 -3 -3 -3 -3 -3 -3 -4 -4 -4 -4 -3 -3 -3 -4 -4 -4 -4 -4 -4 -5 -5 -5 -5 -5
1 1 -0 -1 -1 -1 -2 -2 -2 -3 -3 -3 -3 -3 -3 -3 -3 -4 -4 -4 -4 -4 -3 -3 -4 -4 -4 -4 -3 -4 -4 -4 -4 -4 -4 -4 -5 -5 -5 -6 -6 -6 -6 -6
2 1 1 0 -0 -1 -1 -1 -2 -2 -2 -2 -2 -2 -2 -2 -2 -3 -3 -3 -3 -3 -3 -3 -4 -4 -4 -4 -4 -4 -5 -5 -5 -5 -5 -5 -5 -5 -6 -6 -6 -7 -7 -7
3 2 2 1 1 0 -0 -0 -1 -1 -1 -1 -1 -1 -1 -1 -2 -2 -2 -3 -3 -3 -3 -3 -3 -4 -4 -4 -4 -5 -5 -6 -6 -6 -7 -7 -7 -7 -7 -7 -7 -7 -7 -7
3 2 2 2 1 1 0 0 -0 -1 -1 -1 -1 -1 -1 -1 -1 -2 -2 -2 -2 -2 -3 -3 -3 -3 -4 -4 -4 -5 -5 -6 -7 -7 -7 -8 -8 -8 -8 -8 -7 -7 -8 -8
3 3 2 2 1 1 1 0 0 -0 -0 -1 -1 -1 -1 -1 -1 -1 -2 -2 -3 -3 -3 -3 -4 -4 -4 -5 -5 -6 -7 -7 -8 -8 -8 -9 -9 -9 -9 -9 -9 -9 -9 -9
3 3 3 2 2 2 1 1 0 -0 -0 -0 -0 -1 -1 -1 -1 -2 -2 -3 -3 -3 -3 -4 -4 -5 -5 -6 -6 -7 -8 -8 -9 -9 -10 -10 -10 -10 -10 -10 -10 -10 -10 -10
3 3 3 2 2 2 1 1 0 -0 -0 -1 -1 -1 -1 -1 -2 -2 -2 -3 -3 -3 -4 -4 -5 -6 -6 -7 -8 -8 -9 -10 -10 -10 -11 -11 -11 -11 -11 -11 -11 -11 -11 -11
3 3 3 2 2 1 1 0 -0 -0 -1 -1 -1 -1 -2 -2 -2 -3 -3 -3 -4 -4 -4 -5 -6 -6 -7 -8 -8 -9 -10 -11 -11 -11 -11 -12 -12 -12 -12 -12 -12 -12 -12 -12
3 3 2 2 1 1 1 0 -0 -1 -1 -1 -2 -2 -2 -3 -3 -3 -3 -4 -4 -5 -5 -6 -7 -7 -8 -8 -9 -10 -11 -11 -11 -12 -12 -12 -12 -12 -12 -12 -12 -12 -12 -13
3 3 2 2 1 1 0 -0 -1 -1 -2 -2 -2 -3 -3 -3 -3 -4 -4 -4 -5 -6 -6 -7 -7 -8 -8 -9 -10 -10 -11 -12 -12 -12 -12 -12 -13 -13 -12 -12 -12 -12 -12 -12
3 2 2 1 0 0 -0 -1 -1 -2 -2 -3 -3 -3 -4 -4 -4 -4 -5 -5 -6 -6 -7 -8 -8 -9 -9 -10 -10 -11 -12 -12 -12 -12 -12 -12 -13 -13 -13 -13 -13 -13 -13 -13
2 2 1 1 0 -1 -1 -1 -2 -2 -3 -3 -4 -4 -4 -4 -5 -5 -6 -7 -7 -8 -8 -9 -9 -10 -10 -11 -11 -11 -12 -12 -12 -12 -13 -13 -13 -13 -13 -13 -13 -13 -13 -13
1 1 1 -0 -1 -1 -2 -2 -3 -3 -3 -4 -4 -4 -4 -5 -5 -6 -7 -7 -7 -8 -9 -10 -10 -11 -11 -12 -12 -12 -12 -12 -13 -13 -13 -13 -13 -13 -13 -13 -13 -13 -13 -13
1 0 -1 -1 -2 -2 -2 -3 -3 -4 -4 -4 -5 -5 -5 -6 -6 -6 -7 -7 -8 -8 -9 -10 -11 -11 -12 -12 -13 -13 -13 -13 -13 -13 -13 -14 -14 -14 -14 -14 -14 -14 -14 -13
-0 -1 -1 -2 -2 -3 -3 -4 -4 -4 -5 -5 -5 -6 -6 -6 -7 -7 -7 -8 -8 -9 -10 -10 -11 -12 -13 -13 -13 -13 -14 -14 -14 -14 -14 -14 -14 -14 -14 -14 -14 -14 -14 -14
Height
3034 3035 3032 3029 3028 3026 3022 3023 3021 3021 3015 3012 3007 2999 2992 2984 2975 2966 2972 2970 2973 2981 2992 2999 3002 3005 3010 3016 3021 3024 3029 3033 3036 3040 3046 3049 3055 3057 3060 3063 3067 3070 3075 3077
3038 3038 3036 3034 3033 3032 3029 3029 3028 3024 3021 3020 3017 3012 3003 2993 2988 2984 2984 2979 2989 2994 2999 3002 3007 3012 3016 3020 3023 3029 3033 3036 3041 3046 3048 3053 3055 3058 3060 3064 3066 3068 3070 3071
3040 3039 3038 3039 3039 3037 3034 3033 3032 3028 3026 3025 3022 3019 3013 3007 3004 3001 2996 2997 2999 3003 3005 3011 3013 3018 3022 3024 3030 3034 3035 3039 3043 3045 3049 3052 3055 3058 3060 3062 3065 3065 3067 3070
3039 3040 3045 3045 3043 3042 3038 3036 3034 3033 3030 3028 3026 3024 3021 3019 3015 3014 3012 3013 3013 3015 3017 3020 3023 3026 3026 3031 3036 3039 3042 3045 3047 3048 3051 3055 3056 3058 3058 3060 3062 3063 3063 3064
3039 3041 3046 3045 3046 3045 3043 3040 3036 3035 3035 3032 3032 3032 3027 3023 3022 3020 3020 3020 3021 3023 3025 3025 3027 3029 3035 3038 3041 3042 3045 3046 3048 3051 3052 3053 3055 3056 3055 3056 3058 3060 3060 3061
3041 3042 3043 3045 3045 3045 3045 3042 3039 3038 3038 3039 3034 3033 3030 3029 3028 3027 3028 3027 3028 3029 3028 3031 3032 3036 3039 3041 3042 3044 3046 3048 3048 3049 3052 3052 3053 3053 3052 3054 3054 3056 3057 3057
3041 3042 3042 3044 3044 3045 3047 3050 3042 3040 3039 3039 3039 3039 3037 3035 3035 3034 3034 3033 3032 3034 3035 3034 3037 3039 3041 3042 3042 3043 3044 3045 3045 3048 3049 3049 3049 3050 3049 3050 3050 3051 3051 3052
3042 3042 3043 3042 3044 3046 3046 3044 3045 3044 3042 3040 3041 3040 3039 3039 3038 3037 3036 3035 3036 3038 3037 3038 3040 3042 3041 3040 3041 3042 3043 3043 3044 3044 3044 3043 3043 3044 3043 3043 3044 3043 3044 3045
3040 3039 3040 3041 3042 3043 3044 3045 3046 3045 3044 3042 3040 3040 3041 3041 3040 3039 3039 3039 3039 3038 3040 3040 3042 3042 3041 3041 3041 3039 3037 3036 3037 3037 3036 3037 3038 3037 3036 3037 3037 3037 3037 3037
3038 3037 3037 3039 3041 3042 3043 3045 3045 3045 3045 3044 3043 3042 3041 3042 3042 3041 3042 3041 3041 3040 3040 3040 3037 3036 3035 3033 3033 3032 3033 3033 3031 3030 3029 3030 3030 3030 3028 3028 3028 3028 3029 3028
3035 3034 3035 3037 3039 3041 3043 3043 3044 3044 3044 3044 3043 3042 3040 3038 3038 3039 3040 3040 3039 3041 3041 3038 3034 3035 3035 3034 3032 3029 3028 3027 3026 3027 3026 3025 3024 3023 3020 3021 3022 3020 3021 3020
3032 3032 3033 3035 3036 3037 3039 3040 3041 3042 3042 3041 3040 3039 3038 3038 3036 3034 3033 3033 3033 3034 3033 3030 3031 3031 3029 3028 3026 3026 3024 3022 3022 3022 3019 3018 3017 3016 3015 3013 3013 3013 3011 3011
3031 3031 3032 3033 3034 3035 3036 3037 3039 3040 3039 3039 3039 3038 3036 3035 3032 3030 3028 3026 3025 3025 3023 3023 3023 3022 3021 3020 3021 3021 3019 3018 3016 3014 3011 3009 3008 3008 3006 3004 3003 3003 3002 3001
3029 3030 3030 3031 3032 3033 3034 3035 3035 3036 3037 3037 3037 3036 3036 3035 3033 3032 3030 3028 3026 3023 3021 3018 3017 3014 3013 3012 3010 3009 3009 3007 3007 3006 3005 3003 3002 2999 2997 2996 2996 2994 2991 2990
3027 3028 3029 3030 3031 3032 3033 3034 3034 3034 3035 3035 3034 3034 3034 3033 3032 3030 3028 3026 3025 3023 3020 3017 3015 3013 3010 3007 3005 3003 3001 3000 2999 2997 2996 2995 2993 2992 2990 2988 2985 2983 2981 2978
3026 3026 3027 3028 3029 3030 3031 3032 3033 3033 3033 3033 3032 3031 3031 3030 3028 3027 3025 3023 3021 3019 3016 3014 3012 3009 3006 3004 3002 2999 2996 2993 2990 2988 2986 2984 2982 2981 2979 2978 2976 2974 2971 2969
3023 3024 3025 3025 3027 3028 3029 3030 3030 3031 3030 3030 3029 3029 3028 3026 3024 3022 3020 3018 3015 3013 3010 3008 3005 3002 2999 2997 2995 2992 2989 2987 2983 2981 2979 2977 2975 2973 2970 2968 2966 2964 2961 2959
3019 3020 3022 3022 3023 3025 3026 3027 3027 3027 3027 3027 3026 3025 3023 3021 3019 3018 3015 3012 3010 3006 3004 3001 2998 2995 2993 2990 2987 2984 2981 2978 2975 2973 2971 2968 2966 2964 2962 2959 2956 2954 2952 2949
3014 3016 3017 3019 3020 3021 3022 3022 3023 3023 3022 3021 3020 3019 3018 3016 3014 3012 3009 3007 3004 3000 2997 2994 2990 2988 2985 2982 2979 2977 2973 2971 2969 2966 2964 2961 2959 2956 2954 2951 2948 2946 2943 2941
3008 3010 3011 3013 3015 3016 3016 3017 3017 3017 3016 3016 3015 3013 3011 3010 3007 3005 3002 2999 2997 2994 2991 2987 2985 2982 2979 2976 2973 2970 2967 2964 2962 2959 2957 2954 2952 2949 2947 2944 2942 2939 2936 2934
3004 3005 3006 3008 3009 3010 3011 3011 3011 3011 3010 3009 3008 3007 3005 3003 3000 2998 2995 2992 2988 2986 2983 2980 2977 2974 2971 2968 2965 2962 2960 2958 2955 2952 2950 2947 2945 2942 2940 2938 2935 2933 2930 2928
2998 3000 3001 3002 3003 3004 3004 3005 3005 3005 3003 3002 3001 3000 2998 2996 2992 2990 2987 2985 2981 2979 2975 2972 2969 2966 2964 2960 2957 2954 2952 2951 2948 2945 2942 2939 2937 2935 2933 2930 2928 2925 2923 2920
2992 2994 2994 2996 2997 2998 2999 2998 2998 2998 2996 2995 2994 2993 2991 2988 2985 2983 2979 2977 2974 2971 2969 2965 2962 2959 2955 2953 2950 2947 2944 2942 2940 2937 2935 2932 2930 2928 2925 2923 2920 2917 2915 2912
2987 2988 2988 2989 2991 2991 2992 2992 2991 2990 2990 2988 2987 2986 2984 2981 2978 2974 2973 2970 2967 2965 2962 2958 2954 2951 2947 2945 2942 2939 2937 2934 2931 2929 2927 2925 2922 2920 2918 2915 2913 2910 2907 2905
2981 2982 2982 2983 2984 2985 2985 2985 2984 2984 2983 2982 2980 2978 2976 2974 2973 2968 2965 2962 2959 2956 2953 2949 2946 2943 2940 2937 2934 2931 2928 2925 2923 2921 2919 2917 2915 2913 2910 2908 2906 2903 2901 2899
2974 2976 2977 2976 2977 2978 2978 2978 2977 2976 2976 2975 2973 2971 2968 2966 2964 2961 2958 2955 2952 2948 2944 2941 2937 2934 2931 2928 2925 2922 2919 2918 2915 2913 2912 2910 2908 2906 2904 2901 2899 2897 2895 2893
2966 2967 2969 2970 2970 2971 2971 2970 2969 2968 2969 2968 2966 2963 2961 2959 2956 2953 2950 2946 2943 2939 2935 2932 2928 2924 2921 2918 2916 2913 2911 2909 2908 2906 2905 2904 2902 2899 2898 2895 2893 2891 2889 2887
Wind_Speed
20 20 22 24 20 21 27 20 18 22 27 28 31 33 34 42 38 46 42 45 47 39 36 28 28 19 15 11 18 20 21 23 27 27 23 19 18 20 22 22 19 24 45 44
10 12 17 24 23 15 19 17 19 20 26 25 25 26 30 39 42 44 40 43 40 34 32 30 29 27 24 24 22 22 23 22 19 20 17 12 14 24 21 20 22 24 26 31
3 5 3 11 16 14 14 16 16 20 17 21 24 25 29 31 33 33 35 35 32 32 32 27 25 24 22 22 22 19 19 20 11 11 9 8 12 14 18 22 23 23 24 21
3 2 5 3 7 9 11 10 12 14 15 19 21 22 24 27 26 26 29 28 28 25 22 20 17 14 15 16 17 19 16 16 16 14 12 11 11 13 14 15 15 17 19 25
3 10 8 5 3 2 4 8 10 11 13 13 16 12 20 24 24 25 23 23 22 21 19 17 14 12 9 7 5 4 4 7 13 17 17 16 17 15 14 16 17 18 20 18
3 2 2 4 7 4 3 4 6 7 8 10 14 14 21 22 21 20 19 18 17 15 13 12 11 9 6 4 3 3 4 7 8 9 11 17 18 15 16 17 19 20 20 21
0 1 1 4 8 7 2 3 4 5 7 9 8 13 15 16 15 17 16 15 15 13 11 9 7 5 3 2 1 3 6 9 10 13 15 16 17 19 20 23 23 26 25 25
4 3 3 8 10 7 4 10 6 3 3 5 7 11 12 12 12 13 12 13 13 12 11 9 7 4 2 3 5 7 10 12 13 15 17 19 20 21 24 26 27 30 30 30
6 4 3 9 6 4 5 6 4 3 3 5 8 9 9 9 10 10 10 10 9 8 8 8 6 5 4 3 3 5 7 11 14 17 18 20 23 24 24 25 29 32 33 34
7 8 7 10 8 6 6 6 4 3 3 3 5 6 6 5 5 6 6 7 6 6 7 7 7 8 10 11 12 11 11 12 13 14 16 19 23 27 27 27 27 29 31 32
9 11 12 13 12 11 10 8 5 4 2 1 3 4 5 6 6 6 6 5 4 3 2 3 4 5 8 10 12 13 15 17 18 20 20 22 24 25 25 27 30 30 31 32
5 9 7 10 10 9 7 5 3 1 1 3 4 5 5 6 7 10 12 12 11 10 10 10 10 10 11 11 12 14 16 18 19 21 23 24 24 26 27 29 29 27 30 32
5 7 10 9 8 7 6 4 2 1 1 3 5 6 7 10 12 14 15 17 18 18 19 17 18 19 20 20 17 15 16 17 19 22 24 26 28 30 30 30 29 28 28 31
5 6 7 6 5 5 4 2 1 1 2 3 5 6 8 10 12 13 15 17 19 21 23 25 25 26 26 26 25 25 23 21 20 21 22 24 26 29 31 33 33 32 33 32
6 7 7 6 6 5 4 3 1 2 4 6 8 10 12 13 14 16 17 17 19 20 22 23 24 25 26 27 27 27 26 25 24 24 24 23 24 26 28 30 32 33 34 34
8 8 8 8 7 7 5 4 3 3 5 7 9 12 14 16 17 18 19 20 21 22 23 25 25 25 26 26 26 27 26 26 25 25 24 24 25 25 25 26 27 30 32 33
9 9 9 8 8 7 6 5 4 4 6 8 10 12 14 17 19 21 22 23 24 25 26 26 26 27 27 27 27 27 27 27 27 26 25 24 24 24 24 24 25 27 28 29
13 12 11 10 9 7 6 6 6 7 9 10 12 15 16 19 21 22 24 24 25 27 27 27 27 27 27 27 27 27 28 29 28 26 25 25 24 24 23 24 25 26 27 28
15 13 12 10 10 9 10 10 11 11 12 13 15 17 19 20 22 24 24 25 26 27 29 28 28 27 27 27 27 28 28 27 26 25 25 24 22 23 24 24 24 25 25 24
20 17 16 15 14 14 14 14 14 15 16 17 18 20 21 22 23 24 24 25 26 27 27 27 26 26 27 27 27 28 28 27 26 25 25 24 24 23 22 18 17 19 21 22
20 20 19 18 18 17 16 17 17 17 18 19 20 21 22 23 24 24 25 25 28 26 26 26 26 26 26 27 28 28 28 27 25 26 26 26 26 24 22 22 24 24 21 21
21 21 21 21 20 20 19 19 19 19 20 21 21 22 23 24 25 25 26 25 26 26 26 27 27 27 28 28 28 29 28 26 26 28 27 27 26 25 26 27 28 26 25 25
21 22 23 23 22 21 21 21 19 20 22 21 22 22 23 24 25 25 26 26 26 27 27 27 28 29 30 29 30 30 28 27 28 29 27 27 26 26 26 26 26 26 26 25
19 20 23 23 22 21 22 21 21 22 22 22 23 23 24 25 25 26 25 26 27 27 28 29 30 30 30 30 30 29 27 27 28 27 25 24 24 24 24 25 25 25 23 24
19 21 22 21 21 22 22 22 22 22 22 23 24 25 26 25 23 26 27 28 30 31 31 32 31 31 30 30 30 29 27 26 26 25 24 23 23 23 23 24 24 23 22 22
21 20 20 22 23 22 22 23 23 23 22 22 25 26 26 26 26 27 28 30 31 32 32 31 31 31 31 30 29 28 27 26 25 23 21 19 18 19 21 22 23 22 21 21
24 24 22 21 21 22 23 22 23 24 23 23 25 26 26 27 28 29 30 30 31 32 32 32 32 32 30 29 29 27 25 24 21 18 16 16 18 22 25 24 23 21 20 19
Wind_Direction
71 76 75 71 69 64 60 55 48 31 32 30 36 36 35 40 49 73 92 108 112 117 131 132 139 138 143 136 132 130 131 138 144 149 158 162 172 168 167 174 181 216 218 233
83 78 63 65 56 70 65 53 55 45 45 38 45 48 40 44 45 55 69 76 111 119 126 129 124 122 128 132 131 138 145 149 155 161 173 196 205 213 205 200 202 202 215 234
82 52 54 34 48 42 60 49 41 43 38 35 47 49 52 52 54 58 58 71 85 110 114 122 119 119 125 124 137 143 158 161 152 141 155 186 202 208 210 212 210 209 213 222
36 60 48 122 67 45 48 54 38 43 44 41 44 43 56 59 60 64 70 75 79 81 82 91 88 97 104 122 147 150 154 163 171 174 187 204 218 224 229 236 238 242 246 238
65 70 123 166 177 122 35 46 41 22 27 37 44 43 57 59 58 58 63 70 75 79 84 92 93 91 98 109 119 120 168 184 202 215 214 209 221 229 233 231 232 237 246 256
74 92 176 158 167 153 124 3 43 24 24 54 42 52 59 59 55 60 66 68 72 75 73 75 81 97 114 137 165 198 228 241 242 244 254 236 221 228 230 234 235 238 237 237
333 65 236 175 176 193 257 213 81 47 29 38 43 59 60 59 61 65 64 64 66 68 69 65 60 45 22 360 322 267 251 246 246 250 257 260 260 249 246 247 240 245 244 243
209 224 240 177 168 185 198 141 131 119 51 39 54 57 57 57 57 56 56 54 56 54 53 52 54 53 6 325 298 287 281 278 274 270 265 262 261 257 257 259 258 260 260 258
216 231 232 182 184 189 138 134 147 122 88 65 46 43 56 65 60 57 60 63 55 47 33 25 23 23 6 342 306 285 275 272 272 272 271 271 270 267 264 262 260 258 257 257
215 208 202 196 207 182 177 171 167 156 126 62 26 26 40 55 55 55 49 42 25 13 1 348 339 338 334 329 323 318 309 298 296 291 279 278 272 265 263 264 264 264 264 263
202 187 182 188 185 181 182 179 176 175 182 1 14 9 357 353 5 28 43 38 32 17 334 319 324 307 295 298 300 300 300 299 296 293 290 288 287 287 284 279 270 267 269 266
182 173 165 163 178 176 173 171 165 183 307 340 355 1 356 359 355 353 355 354 351 351 346 337 332 323 315 309 309 299 292 289 286 287 287 287 285 282 281 282 283 281 272 269
166 158 163 163 177 182 178 184 200 243 303 350 7 1 350 349 345 343 341 337 338 334 335 334 328 323 324 323 317 304 292 285 283 284 285 284 283 283 284 285 282 279 277 277
165 163 173 166 159 173 176 172 207 329 351 2 349 341 343 339 336 334 332 332 330 328 327 327 327 325 324 320 318 315 313 309 298 290 285 282 280 279 279 278 279 281 282 276
180 180 180 181 182 186 184 179 218 312 336 345 344 339 339 339 332 327 324 321 319 318 316 315 315 316 316 313 313 312 311 306 303 300 296 291 285 281 280 279 280 281 282 283
197 196 196 197 196 202 200 208 234 286 322 333 333 333 335 331 326 322 318 316 315 314 312 310 312 311 308 307 307 306 306 305 304 303 302 299 297 293 288 283 282 281 279 278
213 207 207 205 210 215 218 233 252 284 303 314 324 328 327 323 320 318 315 312 312 311 311 310 309 307 307 307 307 307 307 306 306 306 304 301 298 295 293 291 290 289 288 287
219 222 218 220 223 231 239 253 265 274 289 304 312 314 316 316 316 315 310 308 308 307 307 307 307 306 306 305 305 304 304 304 306 307 305 303 302 299 297 295 292 290 290 290
227 229 231 232 236 242 246 251 260 271 282 291 298 302 306 308 310 310 309 306 304 304 305 306 305 306 304 303 303 304 303 304 305 305 304 303 303 302 302 300 296 293 290 290
227 230 233 238 241 243 248 255 263 271 278 287 293 297 301 304 307 309 308 304 302 303 303 303 305 303 303 302 302 301 301 302 302 301 301 300 300 300 302 302 309 307 301 300
233 235 237 239 243 249 254 261 266 273 281 286 290 294 299 304 308 308 305 303 302 305 304 304 303 302 301 301 300 299 300 300 300 298 297 297 296 294 291 291 300 302 300 296
233 237 241 244 247 251 257 263 268 274 280 284 288 293 300 306 306 305 303 302 303 305 304 305 304 303 302 300 300 299 299 298 297 295 297 296 295 291 291 292 294 293 293 293
233 235 240 243 246 252 259 265 272 277 281 284 288 295 302 304 304 304 303 306 305 305 305 305 304 302 300 300 299 298 299 297 293 294 295 294 293 293 295 295 295 294 294 295
238 241 240 241 246 252 257 266 271 277 280 284 290 298 303 304 304 302 304 304 304 304 305 304 303 302 301 300 298 299 299 295 293 294 294 293 293 295 297 298 297 295 294 294
243 240 238 240 245 251 260 267 273 275 279 286 294 300 302 301 300 300 305 307 307 307 307 305 303 302 300 298 298 298 296 292 291 291 289 289 292 295 297 300 299 297 295 296
245 240 237 238 245 255 263 269 271 276 282 289 295 298 299 300 301 303 305 306 305 305 305 304 303 301 299 298 297 296 294 291 288 285 285 290 297 302 304 304 301 297 296 298
234 234 239 246 251 258 263 267 272 277 284 290 294 296 297 299 303 306 306 307 307 308 308 306 303 301 299 297 295 293 291 287 281 277 283 294 306 312 308 303 299 296 296 297